Regional Weather Roundup
Issued by NWS State College, PA

Home | Current Version | Previous Version | Text Only | Print | Product List | Glossary Off
Versions: 1 2 3 4 5 6 7 8 9 10 11 12 13 14 15 16 17 18 19 20 21 22 23 24 25 26 27 28 29 30 31 32 33 34 35 36 37 38 39 40 41 42 43 44 45 46 47 48 49 50

000
ASUS41 KCTP 302203
RWRCTP

REGIONAL WEATHER ROUNDUP
NATIONAL WEATHER SERVICE STATE COLLEGE PA
500 PM EST FRI JAN 30 2015

Note: "fair" indicates few or no clouds below 12,000 feet with no
significant weather and/or obstructions to visibility.

* = STATION THAT DOES NOT REPORT PRECIPITATION /E.G. RAIN...SNOW...ETC/
    THUNDER OR FOG.

PAZ002>004-007>009-013>016-020>023-029>032-302300-
WESTERN PENNSYLVANIA

CITY           SKY/WX    TMP DP  RH WIND       PRES   REMARKS
ERIE           CLOUDY    15   5  64 NW9G18    30.37R WCI   3
MEADVILLE      CLOUDY    13   5  70 NW10      30.30R HAZE    WCI   0
FRANKLIN*      CLOUDY    12   3  67 N9        30.29R WCI   0
NEW CASTLE     LGT SNOW  14   8  77 W12       30.36S WCI   0
BEAVER COUNTY  CLOUDY    16   7  67 NW9G17    30.34R WCI   4
BUTLER*        MOCLDY    16   9  73 SW10G17   30.32R WCI   3
PITTSBURGH INT LGT SNOW  16   8  71 NW17      30.34R WCI   0
PITTSBURGH     CLOUDY    16   3  56 NW10G20   30.32R WCI   4
INDIANA*       CLOUDY    16   7  67 NW13G23   30.28R WCI   2
LATROBE        CLOUDY    18   9  68 NW17      30.31R WCI   2
WASHINGTON CO* CLOUDY    18   7  62 NW12G17   30.35R WCI   5
$$

PAZ004>006-010>012-017>019-024>028-033>037-041-042-045-046-049>053-302300-
CENTRAL PENNSYLVANIA

CITY           SKY/WX    TMP DP  RH WIND       PRES   REMARKS
BRADFORD       LGT SNOW   9   2  73 NW14      30.13R WCI  -7
DUBOIS         CLOUDY    13   5  70 NW16G25   30.17R HAZE    WCI  -3
CLEARFIELD     FLURRIES  16   6  65 W14G29    30.17R WCI   2
JOHNSTOWN      HVY SNOW  12   7  80 NW29G39   30.11R VSB 1/4 WCI  -9
ALTOONA        MIX PCPN  18   7  62 NW20G33   30.16R WCI   2
STATE COLLEGE  LGT SNOW  19  10  68 NW15G28   30.14R WCI   5
WILLIAMSPORT   CLOUDY    25   8  48 NW13G25   30.11R WCI  14
SELINSGROVE    CLOUDY    27  11  51 W15G28    30.10R
FT INDIANTOWN  MOCLDY    28  13  54 NW15G30   30.06R
CAPITAL CITY   CLEAR     27  11  51 NW20G33   30.11R WCI  13
HARRISBURG     PTCLDY    26  14  60 NW32G39   30.10R WCI   9
YORK           CLEAR     27  12  53 NW21G31   30.09R WCI  13
$$

PAZ038>040-043-044-047-048-054-055-060>062-067>071-302300-
EASTERN PENNSYLVANIA

CITY           SKY/WX    TMP DP  RH WIND       PRES   REMARKS
SCRANTON       MIX PCPN  22   9  57 NW18G31   30.01R WCI   7
MOUNT POCONO   LGT SNOW  19   9  65 NW15G29   29.88R WCI   5
ALLENTOWN      PTCLDY    30  17  58 NW21G29   29.98R
QUAKERTOWN*    MOCLDY    30  25  80 N9G18     29.97R
READING        LGT SNOW  28  23  81 W18       30.01R
LANCASTER      PTCLDY    29  14  53 NW26G33   30.04R WCI  14
COATESVILLE    PTCLDY    30  19  64 NW23G31   30.00R
POTTSTOWN      LGT SNOW  29  24  82 NW16G28   30.00R
BLUE BELL      CLOUDY    32  28  86 W12G17    29.97R VSB 1
DOYLESTOWN     MOCLDY    30  21  69 NW12G17   29.95R
WILLOW GROVE   NOT AVBL
NORTH PHILA    SNOW      35  24  64 W22       29.98R VSB 1/8
PHILADELPHIA   FLURRIES  35  24  64 NW15G25   30.00R
$$


USA.gov is the U.S. government's official web portal to all federal, state and local government web resources and services.